• In Austria
  • List of Countries
  • For 7 days
  • Water Temperature
  • Satellite Maps
  • Weather Map
  • News
  • Weather Widgets
  • user-avatar
    Login

    Hourly Weather Hobart

    Today, 18 August, Saturday

    Time Temperature Precipitation Wind Pressure Humidity
    00:00 +8°C° 0.9 mm 3 mps 734 mmHg 92%
    01:00 +7°C° 0.9 mm 3 mps 734 mmHg 95%
    02:00 +7°C° 0.4 mm 3 mps 734 mmHg 95%
    03:00 +7°C° 0.4 mm 3 mps 734 mmHg 95%
    04:00 +7°C° 0.4 mm 3 mps 734 mmHg 95%
    05:00 +5°C° 0.1 mm 3 mps 734 mmHg 95%
    06:00 +4°C° 0.1 mm 4 mps 734 mmHg 94%
    07:00 +3°C° 0.1 mm 4 mps 735 mmHg 93%
    08:00 +5°C° 0 mm 4 mps 735 mmHg 87%
    09:00 +6°C° 0 mm 4 mps 735 mmHg 80%
    10:00 +7°C° 0 mm 5 mps 735 mmHg 74%
    11:00 +7°C° 0.1 mm 5 mps 735 mmHg 68%
    12:00 +8°C° 0.1 mm 5 mps 735 mmHg 62%
    13:00 +9°C° 0.1 mm 5 mps 735 mmHg 56%
    14:00 +8°C° 0.3 mm 4 mps 734 mmHg 59%
    15:00 +8°C° 0.3 mm 4 mps 734 mmHg 63%
    16:00 +7°C° 0.3 mm 4 mps 734 mmHg 66%
    17:00 +6°C° 0.1 mm 4 mps 734 mmHg 72%
    18:00 +4°C° 0.1 mm 3 mps 735 mmHg 77%
    19:00 +3°C° 0.1 mm 3 mps 735 mmHg 83%
    20:00 +3°C° 0 mm 3 mps 735 mmHg 84%
    21:00 +1°C° 0 mm 4 mps 735 mmHg 85%
    22:00 +1°C° 0 mm 4 mps 736 mmHg 87%
    23:00 +1°C° 0.1 mm 4 mps 736 mmHg 88%

    Tomorrow, 19 August, Sunday

    Time Temperature Precipitation Wind Pressure Humidity
    00:00 +1°C° 0.1 mm 4 mps 736 mmHg 89%
    01:00 +1°C° 0.1 mm 4 mps 736 mmHg 91%
    02:00 +2°C° 0.8 mm 5 mps 737 mmHg 92%
    03:00 +3°C° 0.8 mm 6 mps 737 mmHg 92%
    04:00 +3°C° 0.8 mm 7 mps 738 mmHg 93%
    05:00 +2°C° 0.9 mm 8 mps 739 mmHg 92%
    06:00 +2°C° 0.9 mm 9 mps 741 mmHg 91%
    07:00 +2°C° 0.9 mm 10 mps 742 mmHg 90%
    08:00 +2°C° 0.2 mm 10 mps 743 mmHg 87%
    09:00 +2°C° 0.2 mm 9 mps 744 mmHg 84%
    10:00 +2°C° 0.2 mm 9 mps 745 mmHg 81%
    11:00 +2°C° 0.2 mm 9 mps 746 mmHg 76%
    12:00 +3°C° 0.2 mm 9 mps 746 mmHg 70%
    13:00 +3°C° 0.2 mm 9 mps 747 mmHg 65%
    14:00 +4°C° 0.1 mm 8 mps 747 mmHg 66%
    15:00 +4°C° 0.1 mm 8 mps 748 mmHg 67%
    16:00 +4°C° 0.1 mm 8 mps 748 mmHg 67%
    17:00 +3°C° 0.1 mm 7 mps 749 mmHg 73%
    18:00 +2°C° 0.1 mm 6 mps 750 mmHg 78%
    19:00 +1°C° 0.1 mm 6 mps 751 mmHg 84%
    20:00 0°C° 0.1 mm 5 mps 751 mmHg 86%
    21:00 -1°C° 0.1 mm 5 mps 751 mmHg 89%
    22:00 -1°C° 0.1 mm 5 mps 752 mmHg 92%
    23:00 -2°C° 0 mm 4 mps 751 mmHg 93%

    Day after tomorrow, 20 August, Monday

    Time Temperature Precipitation Wind Pressure Humidity
    00:00 -2°C° 0 mm 4 mps 751 mmHg 94%
    01:00 -2°C° 0 mm 4 mps 751 mmHg 95%
    02:00 -3°C° 0 mm 4 mps 751 mmHg 95%
    03:00 -2°C° 0 mm 3 mps 750 mmHg 95%
    04:00 -2°C° 0 mm 3 mps 750 mmHg 95%
    05:00 -2°C° 0 mm 3 mps 750 mmHg 95%
    06:00 -1°C° 0 mm 3 mps 749 mmHg 95%
    07:00 -1°C° 0 mm 3 mps 749 mmHg 95%
    08:00 +1°C° 0 mm 3 mps 748 mmHg 87%
    09:00 +3°C° 0 mm 3 mps 748 mmHg 79%
    10:00 +6°C° 0 mm 4 mps 747 mmHg 72%
    11:00 +6°C° 0.2 mm 4 mps 746 mmHg 74%
    12:00 +7°C° 0.2 mm 4 mps 745 mmHg 75%
    13:00 +8°C° 0.2 mm 4 mps 744 mmHg 77%
    14:00 +8°C° 0.2 mm 4 mps 743 mmHg 77%
    15:00 +8°C° 0.2 mm 5 mps 742 mmHg 78%
    16:00 +8°C° 0.2 mm 5 mps 741 mmHg 78%
    17:00 +7°C° 0.1 mm 5 mps 740 mmHg 82%
    18:00 +6°C° 0.1 mm 5 mps 740 mmHg 86%
    19:00 +6°C° 0.1 mm 5 mps 740 mmHg 90%
    20:00 +5°C° 0.2 mm 5 mps 739 mmHg 90%
    21:00 +3°C° 0.2 mm 5 mps 739 mmHg 90%
    22:00 +3°C° 0.2 mm 6 mps 738 mmHg 89%
    23:00 +3°C° 0.8 mm 6 mps 737 mmHg 91%

    21 August, Tuesday

    Time Temperature Precipitation Wind Pressure Humidity
    00:00 +3°C° 0.8 mm 5 mps 737 mmHg 92%
    01:00 +3°C° 0.8 mm 5 mps 736 mmHg 93%
    02:00 +3°C° 0.5 mm 6 mps 735 mmHg 92%
    03:00 +3°C° 0.5 mm 7 mps 735 mmHg 92%
    04:00 +3°C° 0.5 mm 7 mps 735 mmHg 91%
    05:00 +2°C° 0.5 mm 8 mps 735 mmHg 91%
    06:00 +2°C° 0.5 mm 8 mps 736 mmHg 91%
    07:00 +2°C° 0.5 mm 8 mps 736 mmHg 91%
    08:00 +4°C° 0.4 mm 8 mps 737 mmHg 89%
    09:00 +5°C° 0.4 mm 7 mps 738 mmHg 87%
    10:00 +6°C° 0.4 mm 7 mps 739 mmHg 84%
    11:00 +8°C° 0.2 mm 7 mps 740 mmHg 80%
    12:00 +9°C° 0.2 mm 6 mps 740 mmHg 75%
    13:00 +9°C° 0.2 mm 6 mps 741 mmHg 71%
    14:00 +9°C° 0.2 mm 6 mps 741 mmHg 76%
    15:00 +8°C° 0.2 mm 6 mps 741 mmHg 81%
    16:00 +7°C° 0.2 mm 5 mps 742 mmHg 86%
    17:00 +6°C° 0 mm 5 mps 742 mmHg 90%
    18:00 +4°C° 0 mm 4 mps 743 mmHg 93%
    19:00 +3°C° 0 mm 3 mps 744 mmHg 96%
    20:00 +3°C° 0 mm 3 mps 744 mmHg 96%
    21:00 +3°C° 0 mm 2 mps 745 mmHg 97%
    22:00 +3°C° 0 mm 2 mps 745 mmHg 97%
    23:00 +2°C° 0 mm 2 mps 745 mmHg 97%

    22 August, Wednesday

    Time Temperature Precipitation Wind Pressure Humidity
    00:00 +2°C° 0 mm 2 mps 745 mmHg 98%
    01:00 +2°C° 0 mm 2 mps 745 mmHg 98%
    02:00 +2°C° 0 mm 2 mps 745 mmHg 98%
    03:00 +2°C° 0 mm 2 mps 745 mmHg 97%
    04:00 +1°C° 0 mm 2 mps 745 mmHg 97%
    05:00 +2°C° 0 mm 2 mps 745 mmHg 96%
    06:00 +2°C° 0 mm 2 mps 746 mmHg 96%
    07:00 +3°C° 0 mm 1 mps 746 mmHg 95%
    08:00 +5°C° 0 mm 1 mps 746 mmHg 87%
    09:00 +8°C° 0 mm 1 mps 746 mmHg 80%
    10:00 +10°C° 0 mm 1 mps 746 mmHg 72%
    11:00 +10°C° 0 mm 2 mps 746 mmHg 65%
    12:00 +13°C° 0 mm 2 mps 745 mmHg 58%
    13:00 +14°C° 0 mm 2 mps 745 mmHg 51%
    14:00 +14°C° 0 mm 2 mps 745 mmHg 54%
    15:00 +14°C° 0 mm 2 mps 745 mmHg 57%
    16:00 +13°C° 0 mm 2 mps 745 mmHg 60%
    17:00 +10°C° 0 mm 3 mps 745 mmHg 69%
    18:00 +8°C° 0 mm 3 mps 745 mmHg 78%
    19:00 +5°C° 0 mm 3 mps 745 mmHg 87%
    20:00 +5°C° 0 mm 3 mps 746 mmHg 89%
    21:00 +4°C° 0 mm 3 mps 746 mmHg 92%
    22:00 +3°C° 0 mm 3 mps 746 mmHg 94%
    23:00 +3°C° 0 mm 3 mps 746 mmHg 95%

    23 August, Thursday

    Time Temperature Precipitation Wind Pressure Humidity
    00:00 +3°C° 0 mm 2 mps 746 mmHg 96%
    01:00 +3°C° 0 mm 2 mps 746 mmHg 96%
    02:00 +3°C° 0 mm 2 mps 746 mmHg 96%
    03:00 +3°C° 0 mm 2 mps 746 mmHg 96%
    04:00 +2°C° 0 mm 2 mps 745 mmHg 96%
    05:00 +2°C° 0 mm 2 mps 746 mmHg 95%
    06:00 +2°C° 0 mm 2 mps 746 mmHg 95%
    07:00 +2°C° 0 mm 2 mps 746 mmHg 94%
    08:00 +6°C° 0 mm 1 mps 747 mmHg 83%
    09:00 +9°C° 0 mm 1 mps 747 mmHg 71%
    10:00 +12°C° 0 mm 1 mps 747 mmHg 60%
    11:00 +13°C° 0 mm 1 mps 747 mmHg 56%
    12:00 +14°C° 0 mm 1 mps 747 mmHg 51%
    13:00 +15°C° 0 mm 1 mps 747 mmHg 47%
    14:00 +15°C° 0 mm 1 mps 747 mmHg 51%
    15:00 +14°C° 0 mm 1 mps 747 mmHg 55%
    16:00 +13°C° 0 mm 1 mps 747 mmHg 59%
    17:00 +11°C° 0 mm 1 mps 748 mmHg 69%
    18:00 +9°C° 0 mm 1 mps 748 mmHg 79%
    19:00 +7°C° 0 mm 1 mps 749 mmHg 89%
    20:00 +7°C° 0 mm 1 mps 749 mmHg 91%
    21:00 +6°C° 0 mm 1 mps 749 mmHg 92%
    22:00 +6°C° 0 mm 1 mps 750 mmHg 94%
    23:00 +6°C° 0 mm 1 mps 750 mmHg 95%
    Show more